Location: Haliburton Scout Reserve
(45.0900°N, 78.3200°W)
Time: 01:57:38
(UTC-04:00)

ESTCUBE 1 - Pass Details

Date: 18 May 2022
Orbit: 644 x 659 km, 97.9° (Epoch: 27 June)

Event Time Altitude Azimuth Distance (km) Brightness Sun altitude
Exits shadow 23:37:58 49° 207° (SSW) 847 ? -21.9°
Maximum altitude 23:38:55 62° 258° (WSW) 739 ? -21.9°
Drops below altitude 10° 23:43:25 10° 340° (NNW) 2,072 ? -22.2°
Sets 23:45:40 0° 344° (NNW) 2,985 ? -22.4°
